Home   Weather   Dryden   Past weeks

Flag for Canada Past Weather in Dryden, Ontario, Canada — Yesterday and Last 2 Weeks

Now
36 °F

Overcast.


Feels Like: 33 °F
Forecast: 32 / 34 °F
Wind: 3 mph from Southeast

Location: Dryden Airport

Current Time: Jan 21, 2017 at 2:01:51 pm

Latest Report: Jan 21, 2017 at 1:03 pm


Visibility: 9 mi

Pressure: 29.55 "Hg

Humidity: 93%

Dew Point: 34 °F

Location of DrydenLocation

Past Weather in Dryden — Graph

°F

Dryden Temperature Yesterday

Maximum temperature yesterday: 37 °F (at 2:00 pm)
Minimum temperature yesterday: 34 °F (at 12:00 am)
Average temperature yesterday: 35 °F

High & Low Weather Summary for the Past Weeks

 TemperatureHumidityPressure
High37 °F (Jan 19, 1:00 pm)100% (Jan 10, 5:44 am)30.83 "Hg (Jan 10, 5:44 am)
Low-27 °F (Jan 13, 7:00 am)64% (Jan 13, 1:00 pm)29.36 "Hg (Jan 10, 2:38 pm)
Average7 °F84%30.01 "Hg
* Reported Jan 6 12:00 pm — Jan 21 12:00 pm, Dryden, Weather by CustomWeather, © 2017

Note: Actual official high and low records may vary slightly from our data, if they occured in-between our weather recording intervals... More about our weather records

Advertising

Dryden Weather History for the Previous 24 Hours

Scroll right to see more
 ConditionsComfort  
Time TempWeatherWind HumidityBarometerVisibility
12:00 pm
Sat, Jan 21
36 °FLow clouds.5 mph93%29.56 "Hg9 mi
11:40 am36 °FLow clouds.7 mph93%29.56 "Hg9 mi
11:00 am34 °FLight rain. Low clouds.8 mph100%29.58 "Hg9 mi
10:37 am34 °FLight rain. Low clouds.7 mph100%29.58 "Hg9 mi
10:23 am34 °FLight rain. Low clouds.7 mph100%29.58 "Hg9 mi
10:10 am34 °FLight mixture of precip. Low clouds.6 mph100%29.58 "Hg9 mi
9:52 am34 °FLight rain. Low clouds.7 mph100%29.58 "Hg9 mi
9:08 am34 °FLight rain. Fog.5 mph100%29.58 "Hg6 mi
9:00 am34 °FLight rain. Fog.5 mph100%29.58 "Hg5 mi
8:32 am34 °FLight rain. Low clouds.5 mph100%29.58 "Hg9 mi
8:00 am34 °FLight rain. Low clouds.6 mph100%29.58 "Hg9 mi
7:42 am34 °FLight rain. Low clouds.5 mph100%29.58 "Hg9 mi
7:26 am34 °FLow clouds.5 mph100%29.58 "Hg9 mi
7:06 am34 °FLight rain. Low clouds.3 mph100%29.57 "Hg9 mi
6:23 am34 °FLow clouds.6 mph100%29.58 "Hg9 mi
5:00 am34 °FLight rain. Low clouds.7 mph100%29.58 "Hg9 mi
4:00 am36 °FLight rain. Low clouds.8 mph93%29.59 "Hg9 mi
3:16 am36 °FLight rain. Mostly cloudy.6 mph100%29.59 "Hg9 mi
3:00 am36 °FLight rain. Mostly cloudy.6 mph100%29.59 "Hg9 mi
2:34 am36 °FLight rain. Overcast.7 mph100%29.60 "Hg9 mi
2:00 am36 °FLight rain. Low clouds.9 mph100%29.61 "Hg9 mi
1:00 am36 °FLight rain. Mostly cloudy.9 mph100%29.60 "Hg9 mi
12:00 am36 °FLight rain. Low clouds.9 mph100%29.60 "Hg8 mi
11:00 pm
Fri, Jan 20
36 °FLight rain. Mostly cloudy.9 mph100%29.61 "Hg9 mi
10:00 pm36 °FLight rain. Overcast.9 mph100%29.62 "Hg9 mi
9:00 pm36 °FLight rain. Passing clouds.8 mph100%29.63 "Hg7 mi
8:00 pm37 °FLight rain. Low clouds.7 mph93%29.63 "Hg9 mi
7:28 pm37 °FLight rain. Overcast.5 mph93%29.64 "Hg9 mi
7:00 pm37 °FOvercast.6 mph100%29.64 "Hg9 mi
6:52 pm37 °FMostly cloudy.8 mph93%29.64 "Hg7 mi
6:00 pm37 °FMostly cloudy.5 mph93%29.63 "Hg9 mi
5:00 pm37 °FOvercast.6 mph93%29.63 "Hg7 mi
4:35 pm37 °FMostly cloudy.8 mph100%29.63 "Hg7 mi
4:00 pm37 °FLow clouds.7 mph100%29.62 "Hg7 mi
3:09 pm37 °FFog.7 mph100%29.61 "Hg6 mi
2:12 pm37 °FFog.8 mph100%29.61 "Hg3 mi
2:00 pm37 °FFog.7 mph100%29.61 "Hg2 mi
Weather by CustomWeather, © 2017

See weather overviewHow to use our weather pages